sat.trackr.live / text

‹ back to catalog

BB 2

NORAD 56170 · 2023-050J

PAYLOAD ACTIVE UNKNOWN

§ Identity

Operator
Country
US
Launch date
2023-04-02
Launch site
AFWTR
Launch vehicle
Mass (kg)
RCS (m²)

External: N2YO · Heavens-Above · Gunter

§ Orbital elements

Epoch: 2026-05-24T23:21:20.757888Z

Period
102.21 min
Inclination
81.0014°
Eccentricity
0.0010373
Mean motion
14.08863171 rev/d
Perigee alt
855.8 km
Apogee alt
870.8 km
Semi-major
7,241.4 km
B*
1.9580e-4
RAAN
101.6742°
Arg perigee
10.1966°
Mean anomaly
349.9412°
Rev number
15,840

§ Raw data

BB 21 56170U 23050J   26144.97315692  .00000350  00000+0  19580-3 0  99912 56170  81.0014 101.6742 0010373  10.1966 349.9412 14.08863171158402

JSON: /api/v1/satellites/56170 · /tle

For live sub-satellite position, see the globe view (requires WebGL).

§ Visibility from observer

Set your observer location to see the next 7 days of passes ≥ 10°. The values pass through the URL so the page stays shareable.

No JS? Fill the form by hand. The geolocation button needs JavaScript.